Denver Centennial, CO

9:12 PM MDT on April 23, 2018 (GMT -0600)
Centennial

Weather History for KAPA - December, 2011

Change the Weather History Date:

Thursday, December 29, 2011

  Actual Average Record
Temperature  
Mean Temperature 45 °F -  
Max Temperature 56 °F 42 °F 62 °F (2017)
Min Temperature 34 °F 20 °F 0 °F (2014)
Degree Days  
Heating Degree Days 20    
Month to date heating degree days 1094  
Moisture  
Dew Point 21 °F    
Average Humidity 43    
Maximum Humidity 64    
Minimum Humidity 21    
Precipitation  
Precipitation 0.00 in - - ()
Month to date precipitation 0.48  
Sea Level Pressure  
Sea Level Pressure 29.83 in    
Wind  
Wind Speed 12 mph (West)    
Max Wind Speed 32 mph    
Max Gust Speed 43 mph    
Visibility 10 miles    
Events      
Averages and records for this station are not official NWS values.
T = Trace of Precipitation, MM = Missing Value Source: NWS Daily Summary

Daily Weather History Graph

Daily Weather History Graph

Search for Another Location

Airport or City:

Astronomy

Dec. 29, 2011 Rise Set
Actual Time 7:19 AM MST 4:43 PM MST
Civil Twilight 6:49 AM MST 5:13 PM MST
Nautical Twilight 6:15 AM MST 5:47 PM MST
Astronomical Twilight 5:42 AM MST 6:20 PM MST
Moon 10:15 AM MST (12/29) 10:21 PM MST (12/29)
Length of Visible Light 10h 24m
Length of Day
9h 24m
Waxing Crescent, 27% of the Moon is Illuminated
Dec 29
Waxing Crescent
Dec 31
First Quarter
Jan 9
Full
Jan 16
Last Quarter
Jan 23
New

Hourly Weather History & Observations

Time (MST) Temp. Windchill Dew Point Humidity Pressure Visibility Wind Dir Wind Speed Gust Speed Precip Events Conditions
12:53 AM 42.1 °F 37.1 °F 24.1 °F 49% 29.92 in 10.0 mi SSW 8.1 mph - N/A   Clear
1:53 AM 39.0 °F 33.4 °F 24.1 °F 55% 29.92 in 10.0 mi SW 8.1 mph - N/A   Clear
2:53 AM 37.0 °F - 24.1 °F 59% 29.90 in 10.0 mi Calm Calm - N/A   Clear
3:53 AM 39.0 °F 32.3 °F 25.0 °F 57% 29.87 in 10.0 mi South 10.4 mph - N/A   Partly Cloudy
4:53 AM 41.0 °F 33.5 °F 24.1 °F 51% 29.82 in 10.0 mi SSE 13.8 mph - N/A   Partly Cloudy
6:53 AM 37.0 °F 33.3 °F 25.0 °F 62% 29.85 in 10.0 mi Variable 4.6 mph - N/A   Scattered Clouds
8:53 AM 50.0 °F - 27.0 °F 41% 29.81 in 10.0 mi NW 13.8 mph 21.9 mph N/A   Partly Cloudy
9:53 AM 53.1 °F - 25.0 °F 34% 29.78 in 10.0 mi West 20.7 mph - N/A   Partly Cloudy
10:53 AM 53.1 °F - 25.0 °F 34% 29.75 in 10.0 mi WNW 9.2 mph - N/A   Partly Cloudy
11:53 AM 53.1 °F - 26.1 °F 35% 29.73 in 10.0 mi West 24.2 mph 38.0 mph N/A   Scattered Clouds
12:53 PM 52.0 °F - 28.0 °F 40% 29.71 in 10.0 mi WSW 13.8 mph 20.7 mph N/A   Scattered Clouds
1:53 PM 54.0 °F - 25.0 °F 33% 29.70 in 10.0 mi West 25.3 mph 33.4 mph N/A   Scattered Clouds
2:53 PM 54.0 °F - 18.0 °F 24% 29.73 in 10.0 mi West 24.2 mph 36.8 mph N/A   Scattered Clouds
3:53 PM 53.1 °F - 18.0 °F 25% 29.72 in 10.0 mi West 24.2 mph 40.3 mph N/A   Scattered Clouds
4:53 PM 48.9 °F - 19.0 °F 31% 29.80 in 10.0 mi NW 9.2 mph - N/A   Scattered Clouds
5:53 PM 48.0 °F - 17.1 °F 29% 29.85 in 10.0 mi NNW 20.7 mph 26.5 mph N/A   Scattered Clouds
6:53 PM 48.0 °F - 15.1 °F 27% 29.85 in 10.0 mi WNW 15.0 mph - N/A   Scattered Clouds
7:53 PM 48.0 °F - 10.9 °F 22% 29.88 in 10.0 mi NW 24.2 mph 36.8 mph N/A   Scattered Clouds
9:53 PM 43.0 °F 36.8 °F 14.0 °F 31% 29.92 in 10.0 mi NNW 11.5 mph - N/A   Partly Cloudy
10:53 PM 39.9 °F 33.9 °F 15.1 °F 36% 29.94 in 10.0 mi NNW 9.2 mph - N/A   Partly Cloudy
11:53 PM 39.9 °F 36.7 °F 12.9 °F 33% 29.94 in 10.0 mi ESE 4.6 mph - N/A   Partly Cloudy